Wind_Speed
21 22 21 21 21 21 21 21 20 20 20 21 21 21 21 20 20 19 19 18 17 17 17 17 17 18 17 18 18 18 17 17 17 17 17 17 17 17
23 23 23 23 23 23 22 22 22 22 22 22 22 23 23 22 22 21 21 20 19 19 18 19 19 19 18 19 19 19 19 18 18 19 19 19 19 19
25 25 25 25 26 25 25 24 24 24 24 24 24 24 24 24 23 23 23 21 21 21 20 20 19 19 19 20 20 20 20 20 20 20 20 19 20 20
27 27 27 27 27 27 27 27 27 27 26 26 26 26 26 25 25 24 24 24 23 23 23 22 21 21 21 21 21 21 21 22 22 21 21 21 21 21
29 29 29 29 29 29 29 28 28 28 28 28 27 27 27 27 26 26 26 26 26 25 25 24 24 23 22 22 21 22 22 22 22 22 22 22 22 22
30 30 30 29 29 29 29 29 29 29 29 28 28 27 28 28 27 27 27 27 27 27 27 26 26 25 24 24 23 23 23 23 23 22 23 23 23 23
32 31 31 30 30 30 29 30 30 29 29 29 28 28 29 29 29 28 28 28 28 28 28 27 26 26 26 25 25 24 24 24 24 23 23 23 24 25
33 32 33 32 31 31 31 31 30 30 30 29 29 29 29 30 30 29 29 29 29 29 28 28 28 28 28 27 26 26 25 25 25 25 24 24 25 25
34 33 33 33 32 32 32 32 32 31 31 30 30 29 29 30 30 30 30 30 30 30 30 29 29 30 30 29 29 28 28 27 27 26 26 26 26 26
34 33 33 34 33 33 33 33 33 32 32 32 31 30 30 30 31 31 31 30 30 30 31 30 30 30 30 30 29 29 29 29 29 29 28 28 28 27
34 34 33 33 33 33 34 34 33 33 33 33 33 32 31 31 32 31 30 31 31 30 31 31 31 31 31 31 31 31 30 30 30 29 29 29 29 28
35 35 34 34 34 34 35 35 35 34 34 34 34 33 32 32 32 32 31 32 32 32 32 32 32 32 32 31 31 31 31 31 30 30 29 29 29 29
35 35 34 34 34 35 36 36 35 35 35 35 35 34 34 33 33 33 33 33 33 33 33 33 33 33 32 32 32 32 32 31 31 30 30 30 29 29
35 35 34 35 35 36 36 36 36 36 36 36 35 34 34 34 34 33 33 33 33 33 33 34 34 34 34 34 33 33 32 31 31 31 31 31 30 30
35 35 35 35 36 36 37 37 37 37 37 36 35 34 34 34 35 35 35 34 33 33 34 34 34 34 35 35 34 33 33 32 32 32 31 31 31 31
36 36 36 35 36 37 37 37 36 37 37 36 36 35 35 35 35 36 35 34 34 33 33 34 34 34 33 34 34 34 33 32 31 31 31 31 31 30
37 37 36 36 37 37 37 37 36 36 35 35 36 35 35 36 36 36 36 35 34 34 33 33 33 34 34 34 34 33 33 33 31 31 31 31 31 31
37 37 36 35 35 36 36 36 36 35 35 35 35 36 36 36 37 37 37 36 35 34 33 32 33 34 34 34 33 33 33 33 32 31 31 31 31 31
36 36 35 35 35 35 35 35 35 36 36 36 36 36 37 37 37 37 37 36 35 34 33 32 32 33 33 33 32 32 32 32 32 32 32 31 31 31
36 36 35 35 34 34 34 34 34 35 36 36 36 37 37 36 36 36 35 35 35 34 33 32 32 32 33 32 32 31 32 32 32 32 31 31 31 31
35 35 35 34 34 34 34 33 33 34 34 35 35 35 35 36 36 35 35 35 34 33 33 32 31 31 31 31 31 30 31 31 31 31 31 31 31 30
34 34 33 33 33 33 32 32 32 33 33 33 33 33 34 35 35 35 35 34 34 34 33 31 30 30 30 30 30 30 30 31 31 31 32 31 30 30
31 31 31 31 31 32 32 32 32 32 33 33 33 32 32 33 34 34 34 34 34 34 33 32 31 30 30 30 31 31 31 32 31 30 31 31 31 30
Wind_Direction
286 286 286 284 282 279 277 277 277 275 273 273 273 272 271 272 273 272 271 271 269 268 265 265 268 267 267 265 265 263 262 261 262 262 262 262 262 261
285 285 284 282 280 279 278 278 277 276 275 273 273 271 270 270 270 270 269 268 269 266 268 268 269 268 266 265 266 264 263 262 262 262 262 261 262 261
285 284 282 281 279 277 277 277 277 275 274 273 273 272 271 270 270 269 267 266 266 265 267 269 270 268 265 264 263 263 263 262 263 262 261 260 260 260
283 283 281 280 279 278 277 277 277 276 274 273 272 273 273 271 270 268 267 265 264 264 265 267 268 269 268 266 262 263 263 263 262 262 261 260 260 260
282 282 280 279 279 279 277 278 277 276 274 272 271 270 271 271 269 268 267 266 265 264 263 264 264 266 267 267 265 263 264 264 263 262 261 260 260 260
282 282 280 279 279 278 276 276 276 276 274 272 271 270 270 270 269 268 267 267 267 265 264 264 262 262 264 265 264 263 264 265 265 264 263 262 260 260
281 280 279 278 277 276 275 275 275 275 275 273 272 270 270 270 269 268 266 267 267 265 266 265 263 261 261 264 264 264 264 264 263 264 264 263 261 261
280 279 278 278 276 274 275 275 274 274 273 273 272 271 269 268 268 268 266 266 266 265 266 264 262 260 261 263 263 263 264 264 263 264 265 265 263 262
277 276 276 276 275 274 274 274 274 273 272 272 272 270 269 268 268 268 266 266 264 264 264 263 261 260 260 260 261 262 262 263 263 264 265 265 263 261
277 276 275 274 274 274 274 274 274 273 272 271 271 270 268 268 268 268 266 265 264 263 263 262 260 260 260 261 261 261 262 263 263 263 265 265 263 260
276 275 275 274 274 274 274 274 273 271 270 270 270 269 268 268 267 268 267 264 263 263 264 263 262 261 260 261 262 262 262 264 263 263 262 263 262 260
276 275 273 274 273 273 273 273 272 271 269 268 267 268 267 267 266 267 267 266 264 263 263 262 262 261 260 260 261 262 262 263 262 262 262 262 261 259
277 275 273 272 272 273 273 272 272 270 268 266 266 266 265 266 266 266 266 265 264 263 262 261 261 261 260 259 259 261 260 261 261 261 261 261 260 259
277 276 274 273 272 272 272 271 270 269 268 266 265 264 264 264 265 266 266 265 265 264 262 261 260 259 259 258 258 258 259 259 258 260 260 260 259 259
276 275 274 273 273 272 272 271 269 268 267 265 264 264 263 263 263 264 265 265 265 265 264 262 261 259 258 257 256 255 256 257 257 258 259 258 259 258
275 274 274 274 274 273 272 271 269 268 267 265 265 264 262 261 262 263 264 265 265 265 265 264 261 259 258 257 255 254 254 255 257 258 257 257 257 257
275 274 274 275 274 274 273 272 270 268 266 266 266 264 261 261 262 262 263 264 264 264 264 263 262 259 258 257 256 254 254 254 255 256 255 255 255 256
276 274 274 274 273 273 272 271 269 268 267 266 265 264 263 262 261 261 263 263 264 264 263 262 259 257 257 256 255 254 253 253 253 254 252 252 254 256
276 275 274 274 274 272 270 269 268 267 267 267 266 265 264 263 261 261 262 262 262 262 262 260 259 258 256 256 255 253 252 251 251 252 251 251 253 255
275 274 273 273 272 271 271 270 268 268 267 267 267 265 263 262 260 260 260 260 260 260 260 259 258 257 256 254 253 251 250 250 250 251 251 251 252 253
274 273 273 272 271 271 271 270 270 269 268 267 267 265 262 260 259 259 258 258 257 258 258 258 257 256 255 252 250 249 247 248 249 251 251 251 251 251
274 273 272 271 271 271 271 271 270 270 269 269 268 266 264 261 259 257 256 256 255 255 256 256 256 255 252 250 249 247 246 247 250 251 251 252 252 251
275 274 273 272 272 271 271 271 271 271 271 269 268 267 265 261 258 256 255 255 255 254 254 254 253 252 250 249 248 248 247 247 249 251 251 251 251 250
Height
5796 5795 5793 5792 5790 5790 5789 5788 5788 5788 5787 5786 5786 5785 5785 5785 5785 5784 5784 5783 5783 5783 5783 5784 5784 5784 5784 5784 5784 5785 5785 5785 5786 5786 5787 5787 5788 5788
5790 5788 5787 5785 5784 5783 5782 5782 5781 5781 5780 5780 5779 5779 5778 5778 5778 5778 5778 5778 5778 5778 5778 5778 5778 5778 5778 5779 5779 5779 5780 5780 5780 5781 5781 5782 5782 5783
5782 5781 5779 5778 5777 5776 5775 5774 5774 5773 5773 5772 5772 5771 5771 5771 5771 5771 5771 5771 5772 5772 5772 5772 5772 5772 5772 5773 5773 5773 5774 5774 5775 5775 5775 5776 5776 5777
5774 5772 5771 5769 5768 5768 5767 5766 5766 5765 5765 5764 5764 5763 5763 5763 5764 5764 5764 5764 5765 5765 5766 5766 5766 5766 5766 5766 5767 5767 5768 5768 5769 5769 5769 5770 5770 5771
5765 5764 5762 5761 5759 5759 5758 5757 5757 5756 5756 5755 5755 5755 5754 5755 5755 5756 5756 5757 5757 5758 5758 5759 5759 5760 5760 5760 5760 5761 5761 5762 5762 5762 5763 5763 5764 5765
5756 5755 5753 5751 5750 5750 5749 5748 5748 5747 5746 5746 5746 5746 5746 5746 5746 5747 5748 5748 5749 5750 5750 5751 5752 5752 5753 5753 5754 5754 5755 5755 5755 5756 5756 5756 5757 5758
5746 5745 5744 5742 5741 5741 5740 5739 5739 5738 5737 5737 5737 5737 5737 5737 5738 5738 5739 5739 5740 5741 5742 5743 5744 5745 5745 5746 5746 5747 5747 5748 5748 5749 5749 5749 5750 5751
5736 5735 5734 5733 5732 5731 5730 5730 5729 5729 5728 5728 5728 5728 5728 5728 5728 5729 5730 5731 5732 5732 5733 5734 5735 5736 5737 5738 5738 5739 5740 5740 5741 5742 5742 5742 5743 5744
5725 5724 5723 5722 5722 5721 5721 5720 5720 5719 5719 5719 5719 5718 5718 5718 5719 5720 5720 5721 5722 5723 5724 5725 5726 5727 5728 5730 5730 5731 5732 5733 5733 5734 5734 5735 5735 5736
5714 5713 5713 5712 5712 5711 5711 5710 5710 5710 5709 5709 5709 5709 5709 5709 5709 5710 5711 5712 5713 5713 5714 5716 5717 5718 5719 5720 5721 5722 5723 5724 5725 5726 5726 5727 5728 5728
5704 5703 5702 5701 5701 5700 5700 5700 5699 5699 5699 5699 5699 5699 5699 5699 5700 5700 5701 5701 5703 5704 5704 5705 5707 5708 5709 5711 5712 5713 5714 5715 5716 5716 5717 5718 5719 5720
5693 5692 5691 5690 5690 5689 5689 5689 5688 5688 5688 5688 5688 5689 5689 5689 5690 5690 5691 5691 5692 5694 5695 5695 5697 5698 5699 5701 5702 5703 5704 5705 5706 5707 5708 5709 5710 5712
5681 5681 5680 5679 5678 5678 5677 5677 5677 5677 5677 5677 5677 5678 5679 5679 5679 5680 5680 5681 5682 5683 5684 5685 5686 5687 5689 5691 5692 5694 5694 5695 5697 5698 5699 5700 5701 5703
5669 5669 5668 5667 5666 5666 5665 5665 5665 5665 5665 5665 5666 5667 5668 5668 5669 5669 5669 5670 5671 5672 5673 5674 5675 5677 5678 5680 5682 5683 5684 5685 5687 5688 5690 5691 5692 5693
5657 5657 5656 5655 5655 5654 5654 5653 5653 5653 5653 5654 5655 5656 5657 5657 5658 5658 5659 5659 5660 5661 5662 5663 5664 5665 5667 5669 5671 5673 5674 5676 5677 5678 5680 5681 5682 5684
5645 5645 5644 5643 5643 5642 5642 5641 5641 5641 5641 5642 5643 5644 5645 5645 5646 5647 5648 5648 5649 5650 5650 5651 5652 5654 5655 5657 5659 5661 5663 5665 5667 5668 5669 5671 5673 5674
5633 5633 5632 5632 5631 5630 5630 5629 5629 5629 5629 5630 5630 5631 5632 5634 5635 5636 5636 5637 5638 5639 5639 5640 5641 5642 5644 5646 5647 5650 5652 5655 5657 5658 5659 5661 5663 5665
5621 5621 5620 5620 5619 5618 5618 5617 5617 5617 5617 5617 5618 5619 5620 5621 5623 5624 5625 5626 5627 5628 5628 5629 5630 5631 5633 5634 5637 5639 5641 5644 5646 5648 5650 5651 5653 5655
5609 5609 5608 5608 5607 5606 5606 5606 5606 5605 5605 5606 5606 5607 5608 5609 5610 5611 5613 5614 5615 5616 5617 5618 5619 5620 5621 5624 5627 5628 5631 5633 5635 5637 5639 5641 5643 5645
5598 5597 5596 5596 5595 5595 5595 5594 5594 5594 5594 5594 5594 5595 5596 5597 5598 5599 5601 5602 5603 5605 5606 5607 5608 5610 5611 5614 5616 5618 5620 5622 5625 5627 5629 5630 5633 5635
5586 5585 5584 5584 5584 5584 5583 5583 5583 5583 5583 5582 5582 5583 5584 5585 5586 5588 5589 5590 5592 5593 5595 5597 5598 5600 5601 5603 5605 5608 5610 5612 5614 5617 5619 5621 5623 5625
5574 5574 5573 5573 5573 5573 5572 5572 5572 5572 5571 5571 5571 5571 5572 5573 5574 5576 5577 5579 5581 5582 5584 5586 5588 5589 5591 5593 5596 5598 5600 5602 5604 5607 5609 5611 5613 5616
5564 5563 5563 5563 5562 5561 5561 5561 5561 5561 5560 5560 5560 5560 5560 5561 5562 5564 5566 5568 5570 5572 5574 5575 5577 5580 5582 5584 5586 5589 5591 5593 5595 5597 5599 5601 5603 5606